星链-32336 (STARLINK-32336)

导读

STARLINK-32336是美国太空探索技术公司(SpaceX)“星链”星座的卫星,于北京时间2024年9月5日发射,属于星链低轨互联网星座组网卫星,主要为全球范围内用户提供高速低延迟卫星互联网服务,支撑星座实现全球覆盖,补充星链在轨服务能力,目前已在预定轨道运行,服务覆盖相关区域。

基本信息
目录编号:
61004
目录名称:
STARLINK-32336
国际标识:
2024-158Q
轨道中心:
EARTH
卫星名称:
星链-32336
卫星全名:
星链-32336 (STARLINK-32336)
卫星状态:
在轨 (已飞行650 天)
发射日期:
2024-09-05 UTC
国别 :
美国 (US)
星等 :
--
轨道信息
数据来源 国际轨道数据
星历时间: 2026-06-17T22:28:29+0800
8小时前
查看轨道信息
半长轴: 6840.895km
偏心率: 0.0000833
轨道倾角: 53.161°
近地点辐角 97.911°
升交点赤经 321.079°
平近点角 262.198°
近地点: 462.188km
远地点: 463.328km
周期: 93.849分钟
每日圈数: 15.343818
详细信息
固有亮度:
5
最大亮度:
2.5
卫星平台:
Starlink V1.0
覆盖范围:
全球
运营商:
太空探索技术公司
运营商所在国:
美国
制造商(研发单位):
太空探索技术公司
制造商所在国:
美国
使用方式:
暂无
卫星简介
Starlink 计划是 SpaceX 推出的全球卫星互联网项目,通过发射低轨道卫星,为全球尤其是偏远地区提供高速、低延迟的互联网服务。自 2019 年起,Starlink 已部署数千颗卫星,旨在缩小全球数字鸿沟,推动互联网普及。该项目还为军事、航空等行业提供通信支持,带来广泛经济效益。
2D轨道图
3D轨道图
轨道高度分析图
轨道倾角分析图
轨道综合分析图
查看轨道综合分析图